Regional Weather Roundup
Issued by NWS

Home | Current Version | Previous Version | Graphics & Text | Print | Product List | Glossary On
Versions: 1 2 3 4 5 6 7 8 9 10 11 12 13 14 15 16 17 18 19 20 21 22 23 24 25 26 27 28
000
ASUS45 KCYS 311710
RWRWY

WYOMING REGIONAL WEATHER ROUNDUP
NATIONAL WEATHER SERVICE CHEYENNE WY
1100 AM MDT TUE MAY 31 2016

NOTE:  "FAIR" INDICATES FEW OR NO CLOUDS BELOW 12,000 FEET
WITH NO SIGNIFICANT WEATHER AND/OR OBSTRUCTIONS TO VISIBILITY.

WYZ001-311800-
YELLOWSTONE NATIONAL PARK

CITY           SKY/WX    TMP DP  RH WIND       PRES   REMARKS
LK YELLOWSTONE   N/A     47  22  37 VRB3      30.27F
W YELLOWSTONE  NOT AVBL

$$
WYZ002>013-054>058-071-098>099-311800-
NORTHERN WYOMING

CITY           SKY/WX    TMP DP  RH WIND       PRES   REMARKS
JACKSON        SUNNY     54  23  30 E5        30.21F
CODY           FAIR      55  36  47 N6        30.18F
GREYBULL       FAIR      62  26  25 NW26      30.13F
WORLAND        FAIR      60  28  29 N18       30.16F
SHERIDAN       FAIR      54  36  50 NW35G41   30.11F
BUFFALO        FAIR      55  34  45 N31G43    30.10R
GILLETTE       CLOUDY    51  36  56 NW31G43   30.08R
HULETT         CLOUDY    50  36  57 W21G30    30.04R
NEWCASTLE      PTSUNNY   54  28  37 W24       30.08F

$$
WYZ014>020-022>026-101>103-311800-
CENTRAL WYOMING

CITY           SKY/WX    TMP DP  RH WIND       PRES   REMARKS
BIG PINEY      FAIR      56  33  42 E5        30.19F
PINEDALE       FAIR      52  30  43 CALM      30.20F
DUBOIS         FAIR      54  18  24 N10       30.17F
LANDER         FAIR      58  39  49 NE8       30.16F
RIVERTON       FAIR      57  33  40 E9        30.18F
CASPER         CLOUDY    54  34  46 NW13      30.15F
DOUGLAS          N/A    N/A N/A N/A MISG      30.13F

$$
WYZ021-027>030-104>119-311800-
SOUTHERN WYOMING

CITY           SKY/WX    TMP DP  RH WIND       PRES   REMARKS
EVANSTON       FAIR      59  40  49 N7        30.18F
KEMMERER         N/A     59  28  31 SW6       30.20S
FORT BRIDGER   SUNNY     57  32  38 CALM      30.21F
ROCK SPRINGS   FAIR      56  35  45 CALM      30.18S
DIXON          FAIR      60  40  47 W8        30.18S
RAWLINS        CLOUDY    54  37  52 E6        30.18S
SARATOGA       FAIR      54  41  62 N9G18     30.19S
LARAMIE        PTSUNNY   53  39  59 VRB7      30.16S
CHEYENNE       PTSUNNY   56  39  53 MISG      30.15S
TORRINGTON     PTSUNNY   60  42  51 W12       30.10F
PINE BLUFFS    CLOUDY    52  37  58 NE5       30.16R

$$




USA.gov is the U.S. government's official web portal to all federal, state and local government web resources and services.